Regional Weather Roundup
Issued by NWS Albany, NY

Home | Current Version | Previous Version | Text Only | Print | Product List | Glossary On
Versions: 1 2 3 4 5 6 7 8 9 10 11 12 13 14 15 16 17 18 19 20 21 22 23 24 25 26 27 28 29 30 31 32 33 34 35 36 37 38 39 40 41 42 43 44 45 46 47 48 49 50
000
ASUS41 KALY 271910
RWRALY

NEW YORK STATE HOURLY WEATHER ROUNDUP
NATIONAL WEATHER SERVICE ALBANY NY
300 PM EDT WED AUG 27 2014

NOTE: "FAIR" INDICATES FEW OR NO CLOUDS BELOW 12,000 FEET WITH NO
SIGNIFICANT WEATHER AND/OR NO OBSTRUCTIONS TO VISIBILITY.

NYZ032-033-038>043-046>054-057>066-NYZ062>081-272000-
EAST


CITY           SKY/WX    TMP DP  RH WIND       PRES   REMARKS
ALBANY         CLOUDY    81  70  69 W7        29.92F
GLENS FALLS    MOSUNNY   84  71  65 S10       29.87F
POUGHKEEPSIE   MOSUNNY   88  68  51 SW5       29.88F HX  91
NEWBURGH       MOSUNNY   90  70  51 W12       29.93F HX  95
MONTGOMERY     MOSUNNY   90  68  48 W8        29.89F HX  94
WHITE PLAINS   MOSUNNY   88  63  43 VRB7      29.92F
ISLIP          SUNNY     85  63  47 SW10      29.92F
NEW YORK CITY  MOSUNNY   89  61  38 SW8G28    29.91F
CENTRAL PARK   SUNNY     89  62  40 CALM      29.94F
$$

NYZ005>009-017-018-044>046-055-056-272000-
CENTRAL


CITY           SKY/WX    TMP DP  RH WIND       PRES   REMARKS
FULTON         SUNNY     75  57  53 W15       29.99F
SYRACUSE       PTSUNNY   77  65  66 W8        29.97F
ROME           CLOUDY    76  65  68 W13       29.97F
ELMIRA         PTSUNNY   81  70  69 N13       29.97F
BINGHAMTON     CLOUDY    74  66  76 NW7       30.02F
MONTICELLO     CLOUDY    81  68  65 NW7       29.98F
$$

NYZ026>034-041>043-272000-
NORTH


CITY           SKY/WX    TMP DP  RH WIND       PRES   REMARKS
WATERTOWN      SUNNY     75  62  64 SW14      29.97S
FORT DRUM      NOT AVBL
MASSENA        MOSUNNY   77  60  55 W9        29.93F
SARANAC LAKE   MOSUNNY   75  57  53 W10       29.95S
PLATTSBURGH    SUNNY     81  64  56 E14       29.87F
$$

NYZ001>004-010>016-019>021-272000-
WEST


CITY           SKY/WX    TMP DP  RH WIND       PRES   REMARKS
NIAGARA FALLS  PTSUNNY   75  55  49 NW12      30.02F
BUFFALO        MOSUNNY   78  56  46 NW12G20   30.03F
DUNKIRK        PTSUNNY   75  59  57 W10       30.05F
JAMESTOWN      SUNNY     73  61  64 W13       30.08F
WELLSVILLE     CLOUDY    78  66  66 N9        30.06F
ROCHESTER      PTSUNNY   77  60  55 NW13G18   30.01S
PENN YAN       PTSUNNY   78  65  63 NW7       30.00F
$$

             KEY
       WCI = WIND CHILL INDEX
       VSB = VISIBILITY
       HX  = HEAT INDEX
$$



USA.gov is the U.S. government's official web portal to all federal, state and local government web resources and services.